EW3836 Weather Reports


Display with metric or nautical units.
time (UTC)temp
F
wind
direction
speed
MPH
gust
MPH
rain 1hr
in
rain 24hr
in
rain mn
in
humidity
%
barometer
mb
20260504050004 64 355 0.0 0.0 0.00 0.00 0.00 41 1005.7
20260504044504 64 355 0.0 0.0 0.00 0.00 0.00 41 1005.6
20260504043004 65 355 0.0 0.0 0.00 0.00 0.00 40 1005.6
20260504041503 65 355 0.0 0.0 0.00 0.00 0.00 39 1005.6
20260504040004 65 355 0.0 0.0 0.00 0.00 0.00 39 1005.4
20260504034502 65 355 0.0 0.0 0.00 0.00 0.00 39 1005.2
20260504033005 65 355 0.0 0.0 0.00 0.00 0.00 38 1005.1
20260504031505 67 355 0.0 0.0 0.00 0.00 0.00 39 1005.0
20260504030100 69 355 0.0 0.0 0.00 0.00 0.00 38 1005.0
20260504024602 72 355 0.0 0.0 0.00 0.00 0.00 36 1005.0
20260504023059 72 355 0.0 0.0 0.00 0.00 0.00 36 1005.2
20260504021556 72 36 0.0 0.0 0.00 0.00 0.00 34 1005.3
20260504020054 73 34 0.0 0.0 0.00 0.00 0.00 34 1005.4
20260504014552 73 32 0.0 0.0 0.00 0.00 0.00 32 1005.6
20260504013104 74 27 0.0 0.0 0.00 0.00 0.00 34 1005.7
20260504011550 74 23 0.0 0.0 0.00 0.00 0.00 35 1005.9
20260504010048 74 33 0.0 0.0 0.00 0.00 0.00 37 1006.0
20260504004559 74 39 0.0 0.0 0.00 0.00 0.00 41 1006.2
20260504003043 74 305 0.0 0.0 0.00 0.00 0.00 42 1006.4
20260504001543 75 33 0.0 0.0 0.00 0.00 0.00 41 1006.4
20260504000037 75 49 0.0 0.0 0.00 0.00 0.00 43 1006.6
20260503234533 75 355 0.0 0.0 0.00 0.00 0.00 41 1006.7
20260503233032 75 314 0.0 0.0 0.00 0.00 0.00 41 1006.8
20260503231527 75 29 0.0 0.0 0.00 0.00 0.00 37 1006.9
20260503230025 75 26 0.0 0.0 0.00 0.00 0.00 40 1007.1
20260503224523 75 16 0.0 0.0 0.00 0.00 0.00 37 1007.3
20260503223021 75 17 0.0 0.0 0.00 0.00 0.00 40 1007.5
20260503221518 75 28 0.0 0.0 0.00 0.00 0.00 45 1007.7
20260503220016 74 336 0.0 0.0 0.00 0.00 0.00 43 1007.8
20260503214515 74 340 0.0 0.0 0.00 0.00 0.00 42 1008.0
20260503213016 75 13 0.0 0.0 0.00 0.00 0.00 41 1008.1
20260503211508 75 333 0.0 0.0 0.00 0.00 0.00 39 1008.3
20260503210007 75 307 0.0 0.0 0.00 0.00 0.00 40 1008.3
20260503204505 75 5 0.0 0.0 0.00 0.00 0.00 43 1008.4
20260503203003 75 19 0.0 0.0 0.00 0.00 0.00 39 1008.5
20260503201558 74 54 0.0 0.0 0.00 0.00 0.00 44 1008.6
20260503200055 74 46 0.0 0.0 0.00 0.00 0.00 42 1008.7
20260503194552 74 330 0.0 0.0 0.00 0.00 0.00 45 1009.0
20260503193056 73 334 0.0 0.0 0.00 0.00 0.00 43 1009.1
20260503191547 73 15 0.0 0.0 0.00 0.00 0.00 44 1009.2
20260503190050 71 323 0.0 0.0 0.00 0.00 0.00 42 1009.3
20260503184555 70 323 0.0 0.0 0.00 0.00 0.00 45 1009.3
20260503183042 67 314 0.0 0.0 0.00 0.00 0.00 54 1009.4
20260503181540 66 315 0.0 0.0 0.00 0.00 0.00 55 1009.6
20260503180039 65 302 0.0 0.0 0.00 0.00 0.00 54 1009.7
20260503174558 65 309 0.0 0.0 0.00 0.00 0.00 56 1009.7
20260503173041 66 316 0.0 0.0 0.00 0.00 0.00 54 1009.7
20260503171537 67 344 0.0 0.0 0.00 0.00 0.00 51 1009.7
20260503081545 64 123 0.0 0.0 0.00 0.00 0.00 34 1009.7